MAS8105 WMKK-OEMA

Flight info

Callsign MAS8105
Flight time N/A
Altitude 36000
Route PUGER1D PUGER R461 ISVUR N563 ADKIT/N0472F380 N563 REXOD L883 UMILA N569 GISKA/N0466F400 N569 TOKRA/N0411F280 Y511 ITRUX/N0465F400 Y511 ELONU ELONU1E
Aircraft A333/H-SDE3GHIJ2J3J5M1RVWXY/LB2D1

Departure

Time 2026-05-08 07:41
Airport Kuala Lumpur International Airport (WMKK)

Arrival

Time N/A
Airport Prince Mohammad Bin Abdulaziz Airport (OEMA)
Time Latitude Longitude Altitude Speed Heading
2026-05-08 07:31 2.74902 101.71174 79 ft 0 kts 56°
2026-05-08 07:31 2.74895 101.71165 79 ft 2 kts 48°
2026-05-08 07:32 2.74884 101.71154 79 ft 2 kts 34°
2026-05-08 07:32 2.74871 101.71146 80 ft 2 kts 23°
2026-05-08 07:32 2.74857 101.71142 79 ft 2 kts 11°
2026-05-08 07:32 2.74842 101.71139 79 ft 2 kts 359°
2026-05-08 07:33 2.74833 101.71140 79 ft 1 kts 352°
2026-05-08 07:33 2.74831 101.71140 79 ft 0 kts 352°
2026-05-08 07:36 2.74832 101.71140 79 ft 0 kts 352°
2026-05-08 07:36 2.74844 101.71137 79 ft 2 kts 345°
2026-05-08 07:36 2.74872 101.71126 79 ft 6 kts 332°
2026-05-08 07:37 2.74923 101.71094 79 ft 11 kts 326°
2026-05-08 07:37 2.75000 101.71040 79 ft 16 kts 324°
2026-05-08 07:37 2.75108 101.71043 79 ft 19 kts 49°
2026-05-08 07:37 2.75196 101.71170 79 ft 24 kts 56°
2026-05-08 07:38 2.75286 101.71300 79 ft 23 kts 56°
2026-05-08 07:38 2.75376 101.71439 79 ft 21 kts 71°
2026-05-08 07:38 2.75293 101.71558 79 ft 24 kts 145°
2026-05-08 07:38 2.75152 101.71651 79 ft 23 kts 146°
2026-05-08 07:39 2.75016 101.71741 79 ft 22 kts 147°
2026-05-08 07:39 2.74951 101.71841 79 ft 17 kts 72°
2026-05-08 07:39 2.75015 101.71943 79 ft 16 kts 56°
2026-05-08 07:39 2.75095 101.72016 79 ft 15 kts 13°
2026-05-08 07:40 2.75185 101.71976 79 ft 14 kts 326°
2026-05-08 07:40 2.75358 101.71860 79 ft 61 kts 326°
2026-05-08 07:40 2.75929 101.71475 80 ft 136 kts 326°
2026-05-08 07:40 2.76896 101.70831 225 ft 183 kts 325°
2026-05-08 07:41 2.77978 101.70137 851 ft 194 kts 323°
2026-05-08 07:41 2.79161 101.69368 1519 ft 211 kts 324°
2026-05-08 07:41 2.80370 101.68574 2512 ft 209 kts 335°
2026-05-08 07:41 2.81512 101.67698 2847 ft 216 kts 305°
2026-05-08 07:42 2.82088 101.66240 3015 ft 237 kts 285°
2026-05-08 07:42 2.82642 101.64627 3398 ft 253 kts 291°
2026-05-08 07:42 2.83315 101.62955 3754 ft 269 kts 292°
2026-05-08 07:42 2.84047 101.61205 4411 ft 273 kts 293°
2026-05-08 07:43 2.84791 101.59441 5078 ft 277 kts 293°
2026-05-08 07:43 2.85542 101.57671 5740 ft 280 kts 293°
2026-05-08 07:43 2.86306 101.55869 6408 ft 282 kts 294°
2026-05-08 07:43 2.87080 101.54048 7063 ft 286 kts 294°
2026-05-08 07:44 2.87852 101.52229 7708 ft 288 kts 294°
2026-05-08 07:44 2.88641 101.50369 8334 ft 291 kts 294°
2026-05-08 07:44 2.89432 101.48505 8909 ft 295 kts 295°
2026-05-08 07:44 2.90240 101.46600 9505 ft 297 kts 295°
2026-05-08 07:45 2.91047 101.44701 10072 ft 300 kts 294°
2026-05-08 07:45 2.91891 101.42713 10280 ft 317 kts 295°
2026-05-08 07:45 2.92769 101.40645 10435 ft 334 kts 295°
2026-05-08 07:45 2.93708 101.38431 10595 ft 351 kts 294°
2026-05-08 07:46 2.94685 101.36131 10730 ft 366 kts 294°
2026-05-08 07:46 2.95688 101.33762 10930 ft 378 kts 294°
2026-05-08 07:46 2.96730 101.31306 11405 ft 381 kts 294°
2026-05-08 07:46 2.97765 101.28869 11884 ft 383 kts 294°
2026-05-08 07:47 2.98820 101.26382 12326 ft 386 kts 294°
2026-05-08 07:47 2.99870 101.23911 12710 ft 391 kts 294°
2026-05-08 07:47 3.00937 101.21395 13160 ft 393 kts 294°
2026-05-08 07:47 3.02009 101.18868 13559 ft 396 kts 294°
2026-05-08 07:48 3.03098 101.16299 13913 ft 401 kts 294°
2026-05-08 07:48 3.04183 101.13742 14344 ft 402 kts 294°
2026-05-08 07:48 3.05271 101.11175 14717 ft 405 kts 294°
2026-05-08 07:48 3.06374 101.08572 15068 ft 408 kts 294°
2026-05-08 07:49 3.07501 101.05910 15394 ft 412 kts 294°
2026-05-08 07:49 3.08614 101.03291 15738 ft 415 kts 294°
2026-05-08 07:49 3.09744 101.00621 16042 ft 419 kts 295°
2026-05-08 07:49 3.10888 100.97925 16447 ft 420 kts 294°
2026-05-08 07:50 3.12034 100.95218 16796 ft 422 kts 294°
2026-05-08 07:50 3.13192 100.92484 17086 ft 426 kts 294°
2026-05-08 07:50 3.14350 100.89751 17366 ft 429 kts 294°
2026-05-08 07:50 3.15519 100.86990 17739 ft 430 kts 295°
2026-05-08 07:51 3.16678 100.84255 18058 ft 432 kts 295°
2026-05-08 07:51 3.17860 100.81465 18380 ft 434 kts 294°
2026-05-08 07:51 3.19050 100.78655 18660 ft 437 kts 294°
2026-05-08 07:51 3.20230 100.75871 18958 ft 439 kts 294°
2026-05-08 07:52 3.21429 100.73038 19271 ft 440 kts 294°
2026-05-08 07:52 3.22617 100.70232 19572 ft 442 kts 294°
2026-05-08 07:52 3.23830 100.67368 19840 ft 444 kts 294°
2026-05-08 07:52 3.25039 100.64510 20122 ft 445 kts 294°
2026-05-08 07:53 3.26232 100.61691 20430 ft 446 kts 294°
2026-05-08 07:53 3.27454 100.58807 20654 ft 448 kts 294°
2026-05-08 07:53 3.28677 100.55916 20883 ft 451 kts 294°
2026-05-08 07:53 3.29901 100.53026 21176 ft 451 kts 294°
2026-05-08 07:54 3.31118 100.50146 21383 ft 453 kts 294°
2026-05-08 07:54 3.32357 100.47219 21639 ft 454 kts 294°
2026-05-08 07:54 3.33580 100.44327 21868 ft 456 kts 294°
2026-05-08 07:54 3.34833 100.41366 22048 ft 458 kts 294°
2026-05-08 07:55 3.36068 100.38448 22274 ft 459 kts 294°
2026-05-08 07:55 3.37327 100.35470 22514 ft 460 kts 294°
2026-05-08 07:55 3.38569 100.32533 22738 ft 461 kts 294°
2026-05-08 07:55 3.39734 100.29511 22911 ft 464 kts 286°
2026-05-08 07:56 3.40182 100.26316 23065 ft 467 kts 273°
2026-05-08 07:56 3.40367 100.23080 23279 ft 468 kts 274°
2026-05-08 07:56 3.40568 100.19796 23433 ft 470 kts 274°
2026-05-08 07:56 3.40770 100.16560 23658 ft 471 kts 274°
2026-05-08 07:57 3.40976 100.13271 23841 ft 472 kts 274°
2026-05-08 07:57 3.41182 100.09997 24030 ft 474 kts 274°
2026-05-08 07:57 3.41388 100.06719 24265 ft 474 kts 274°
2026-05-08 07:57 3.41597 100.03402 24458 ft 475 kts 274°
2026-05-08 07:58 3.41803 100.00131 24665 ft 476 kts 274°
2026-05-08 07:58 3.42011 99.96790 24852 ft 477 kts 274°
2026-05-08 07:58 3.42218 99.93501 25016 ft 479 kts 274°
2026-05-08 07:58 3.42429 99.90134 25210 ft 480 kts 274°
2026-05-08 07:59 3.42635 99.86841 25386 ft 481 kts 274°
2026-05-08 07:59 3.42847 99.83459 25585 ft 482 kts 274°
2026-05-08 07:59 3.43056 99.80130 25793 ft 483 kts 274°
2026-05-08 07:59 3.43265 99.76776 25953 ft 484 kts 274°
2026-05-08 08:00 3.43476 99.73411 26102 ft 486 kts 274°
2026-05-08 08:00 3.43685 99.70043 26243 ft 488 kts 274°
2026-05-08 08:00 3.43900 99.66615 26483 ft 488 kts 274°
2026-05-08 08:00 3.44110 99.63227 26665 ft 489 kts 274°
2026-05-08 08:01 3.44322 99.59840 26786 ft 491 kts 274°
2026-05-08 08:01 3.44532 99.56467 27010 ft 490 kts 274°
2026-05-08 08:01 3.44745 99.53051 27219 ft 490 kts 274°
2026-05-08 08:01 3.44957 99.49648 27393 ft 491 kts 274°
2026-05-08 08:02 3.45169 99.46238 27570 ft 492 kts 274°
2026-05-08 08:02 3.45384 99.42787 27708 ft 493 kts 274°
2026-05-08 08:02 3.45596 99.39371 27877 ft 494 kts 274°
2026-05-08 08:02 3.45807 99.35964 28038 ft 494 kts 274°
2026-05-08 08:03 3.46023 99.32489 28177 ft 495 kts 274°
2026-05-08 08:03 3.46235 99.29079 28299 ft 496 kts 274°
2026-05-08 08:03 3.46448 99.25626 28449 ft 497 kts 274°
2026-05-08 08:03 3.46664 99.22161 28587 ft 497 kts 274°
2026-05-08 08:04 3.46878 99.18701 28726 ft 498 kts 274°
2026-05-08 08:04 3.47093 99.15234 28872 ft 498 kts 274°
2026-05-08 08:04 3.47308 99.11764 29035 ft 498 kts 274°
2026-05-08 08:04 3.47519 99.08345 29202 ft 497 kts 273°
2026-05-08 08:05 3.47732 99.04886 29368 ft 497 kts 274°
2026-05-08 08:05 3.47946 99.01425 29579 ft 496 kts 273°
2026-05-08 08:05 3.48159 98.97980 29764 ft 495 kts 273°
2026-05-08 08:05 3.48371 98.94528 29932 ft 495 kts 273°
2026-05-08 08:06 3.48584 98.91074 30115 ft 495 kts 273°
2026-05-08 08:06 3.48794 98.87667 30277 ft 495 kts 273°
2026-05-08 08:06 3.49006 98.84224 30468 ft 494 kts 273°
2026-05-08 08:06 3.49218 98.80780 30631 ft 494 kts 273°
2026-05-08 08:07 3.49428 98.77359 30811 ft 494 kts 273°
2026-05-08 08:07 3.49638 98.73920 30948 ft 495 kts 273°
2026-05-08 08:07 3.49852 98.70464 31150 ft 494 kts 273°
2026-05-08 08:07 3.50061 98.67035 31312 ft 494 kts 273°
2026-05-08 08:08 3.50271 98.63615 31515 ft 493 kts 273°
2026-05-08 08:08 3.50804 98.60239 31655 ft 491 kts 287°
2026-05-08 08:08 3.52122 98.57067 31826 ft 489 kts 296°
2026-05-08 08:08 3.53544 98.53996 31996 ft 489 kts 295°
2026-05-08 08:09 3.54980 98.50864 32162 ft 489 kts 295°
2026-05-08 08:09 3.56393 98.47772 32374 ft 488 kts 295°
2026-05-08 08:09 3.57817 98.44653 32561 ft 488 kts 295°
2026-05-08 08:09 3.59236 98.41547 32806 ft 487 kts 295°
2026-05-08 08:10 3.60654 98.38441 33017 ft 487 kts 295°
2026-05-08 08:10 3.62063 98.35354 33247 ft 486 kts 295°
2026-05-08 08:10 3.63471 98.32271 33520 ft 484 kts 295°
2026-05-08 08:10 3.64874 98.29195 33785 ft 483 kts 295°
2026-05-08 08:11 3.66268 98.26144 34000 ft 482 kts 295°
2026-05-08 08:11 3.67663 98.23085 34224 ft 481 kts 295°
2026-05-08 08:11 3.69072 98.19996 34493 ft 479 kts 295°
2026-05-08 08:11 3.70458 98.16961 34754 ft 478 kts 295°
2026-05-08 08:12 3.71861 98.13886 35020 ft 476 kts 295°
2026-05-08 08:12 3.73224 98.10894 35225 ft 476 kts 295°
2026-05-08 08:12 3.74614 98.07846 35427 ft 475 kts 295°
2026-05-08 08:12 3.75987 98.04835 35607 ft 475 kts 295°
2026-05-08 08:13 3.77371 98.01801 35815 ft 475 kts 295°
2026-05-08 08:13 3.78737 97.98805 35956 ft 476 kts 295°
2026-05-08 08:13 3.80111 97.95790 35905 ft 480 kts 295°
2026-05-08 08:14 3.82895 97.89683 35985 ft 483 kts 295°
2026-05-08 08:14 3.85708 97.83511 36031 ft 486 kts 295°
2026-05-08 08:15 3.88525 97.77329 36039 ft 489 kts 295°
2026-05-08 08:15 3.91363 97.71098 36043 ft 491 kts 295°
2026-05-08 08:16 3.94185 97.64899 36056 ft 489 kts 295°
2026-05-08 08:16 3.96997 97.58721 36085 ft 486 kts 295°
2026-05-08 08:17 3.99816 97.52531 36112 ft 486 kts 295°
2026-05-08 08:17 4.02633 97.46339 36134 ft 488 kts 295°
2026-05-08 08:18 4.05458 97.40130 36109 ft 487 kts 295°
2026-05-08 08:18 4.08279 97.33929 36084 ft 487 kts 295°
2026-05-08 08:19 4.11091 97.27744 36088 ft 487 kts 295°
2026-05-08 08:19 4.13909 97.21545 36073 ft 488 kts 295°
2026-05-08 08:20 4.16753 97.15292 36094 ft 490 kts 295°
2026-05-08 08:20 4.19559 97.09113 36140 ft 489 kts 295°
2026-05-08 08:21 4.22396 97.02869 36157 ft 488 kts 295°
2026-05-08 08:21 4.25215 96.96662 36189 ft 488 kts 295°
2026-05-08 08:22 4.28048 96.90422 36163 ft 489 kts 295°
2026-05-08 08:22 4.30878 96.84191 36134 ft 489 kts 295°
2026-05-08 08:23 4.33690 96.77995 36127 ft 490 kts 295°
2026-05-08 08:23 4.36529 96.71735 36097 ft 490 kts 295°
2026-05-08 08:24 4.39361 96.65492 36055 ft 489 kts 295°
2026-05-08 08:24 4.42181 96.59275 36032 ft 490 kts 295°
2026-05-08 08:25 4.45019 96.53014 36011 ft 491 kts 295°
2026-05-08 08:25 4.47833 96.46806 35997 ft 491 kts 295°
2026-05-08 08:26 4.50660 96.40569 35977 ft 490 kts 295°
2026-05-08 08:26 4.53486 96.34330 35945 ft 490 kts 295°
2026-05-08 08:27 4.56312 96.28090 35911 ft 490 kts 295°
2026-05-08 08:27 4.59135 96.21855 35898 ft 492 kts 295°
2026-05-08 08:28 4.61956 96.15623 35908 ft 491 kts 295°
2026-05-08 08:28 4.64794 96.09353 35926 ft 491 kts 295°
2026-05-08 08:29 4.67626 96.03093 35917 ft 491 kts 295°
2026-05-08 08:29 4.70456 95.96834 35899 ft 492 kts 295°
2026-05-08 08:30 4.73279 95.90591 35911 ft 493 kts 295°
2026-05-08 08:30 4.77538 95.81167 35904 ft 493 kts 295°
2026-05-08 08:31 4.80365 95.74912 35896 ft 493 kts 295°
2026-05-08 08:31 4.83194 95.68649 35894 ft 492 kts 295°
2026-05-08 08:32 4.86016 95.62400 35893 ft 492 kts 295°
2026-05-08 08:32 4.88848 95.56127 35883 ft 493 kts 295°
2026-05-08 08:33 4.91683 95.49843 35879 ft 494 kts 295°
2026-05-08 08:33 4.94521 95.43554 35864 ft 494 kts 295°
2026-05-08 08:34 4.97343 95.37299 35844 ft 493 kts 295°
2026-05-08 08:34 5.00172 95.31023 35829 ft 494 kts 295°
2026-05-08 08:35 5.03008 95.24731 35826 ft 493 kts 295°
2026-05-08 08:35 5.05833 95.18463 35821 ft 493 kts 295°
2026-05-08 08:36 5.08655 95.12199 35793 ft 494 kts 295°
2026-05-08 08:36 5.11478 95.05932 35805 ft 493 kts 295°
2026-05-08 08:37 5.14295 94.99674 35804 ft 493 kts 295°
2026-05-08 08:37 5.17120 94.93398 35809 ft 493 kts 295°
2026-05-08 08:38 5.19941 94.87131 35802 ft 494 kts 295°
2026-05-08 08:38 5.22759 94.80865 35793 ft 494 kts 295°
2026-05-08 08:39 5.25572 94.74609 35804 ft 494 kts 295°
2026-05-08 08:39 5.28386 94.68349 35824 ft 494 kts 295°
2026-05-08 08:40 5.31219 94.62044 35826 ft 495 kts 295°
2026-05-08 08:40 5.34038 94.55769 35817 ft 494 kts 295°
2026-05-08 08:41 5.36862 94.49485 35812 ft 494 kts 295°
2026-05-08 08:41 5.39698 94.43198 35822 ft 495 kts 296°
2026-05-08 08:42 5.42620 94.36949 35828 ft 494 kts 296°
2026-05-08 08:42 5.45554 94.30703 35805 ft 494 kts 296°
2026-05-08 08:43 5.48466 94.24503 35804 ft 494 kts 296°
2026-05-08 08:43 5.51401 94.18256 35818 ft 493 kts 296°
2026-05-08 08:44 5.54304 94.12072 35815 ft 493 kts 297°
2026-05-08 08:44 5.57238 94.05822 35803 ft 494 kts 296°
2026-05-08 08:45 5.60149 93.99616 35803 ft 494 kts 296°
2026-05-08 08:45 5.63085 93.93356 35809 ft 494 kts 296°
2026-05-08 08:46 5.65991 93.87161 35815 ft 493 kts 296°
2026-05-08 08:46 5.68921 93.80908 35804 ft 494 kts 296°
2026-05-08 08:47 5.71831 93.74699 35794 ft 493 kts 297°
2026-05-08 08:47 5.74742 93.68484 35796 ft 493 kts 297°
2026-05-08 08:48 5.77667 93.62237 35806 ft 493 kts 297°
2026-05-08 08:48 5.80575 93.56026 35807 ft 494 kts 297°
2026-05-08 08:49 5.83509 93.49754 35801 ft 494 kts 297°
2026-05-08 08:49 5.86427 93.43516 35800 ft 493 kts 297°
2026-05-08 08:50 5.89337 93.37296 35801 ft 494 kts 297°
2026-05-08 08:50 5.92263 93.31027 35796 ft 494 kts 297°
2026-05-08 08:51 5.95182 93.24783 35792 ft 494 kts 297°
2026-05-08 08:51 5.98103 93.18537 35796 ft 495 kts 297°
2026-05-08 08:52 6.01031 93.12268 35804 ft 495 kts 297°
2026-05-08 08:52 6.03954 93.06009 35803 ft 495 kts 296°
2026-05-08 08:53 6.06884 92.99732 35795 ft 497 kts 296°
2026-05-08 08:53 6.09818 92.93438 35788 ft 497 kts 296°
2026-05-08 08:54 6.12742 92.87168 35783 ft 496 kts 296°
2026-05-08 08:54 6.15658 92.80913 35781 ft 496 kts 296°
2026-05-08 08:55 6.18595 92.74611 35783 ft 496 kts 296°
2026-05-08 08:55 6.21530 92.68310 35796 ft 498 kts 296°
2026-05-08 08:56 6.24468 92.62000 35801 ft 498 kts 296°
2026-05-08 08:56 6.27387 92.55728 35803 ft 497 kts 296°
2026-05-08 08:57 6.30320 92.49425 35803 ft 498 kts 296°
2026-05-08 08:57 6.33253 92.43121 35802 ft 498 kts 296°
2026-05-08 08:58 6.36196 92.36790 35801 ft 498 kts 296°
2026-05-08 08:58 6.39136 92.30465 35797 ft 499 kts 296°
2026-05-08 08:59 6.42063 92.24166 35814 ft 500 kts 296°
2026-05-08 08:59 6.45001 92.17840 35792 ft 498 kts 296°
2026-05-08 09:00 6.47946 92.11494 35792 ft 500 kts 296°
2026-05-08 09:00 6.50882 92.05168 35791 ft 499 kts 296°
2026-05-08 09:01 6.53823 91.98830 35804 ft 500 kts 296°
2026-05-08 09:01 6.56772 91.92473 35799 ft 501 kts 296°
2026-05-08 09:02 6.59721 91.86108 35799 ft 501 kts 296°
2026-05-08 09:02 6.62671 91.79742 35795 ft 500 kts 296°
2026-05-08 09:03 6.65609 91.73401 35795 ft 499 kts 296°
2026-05-08 09:03 6.68522 91.67107 35792 ft 499 kts 295°
2026-05-08 09:04 6.71462 91.60753 35798 ft 499 kts 295°
2026-05-08 09:04 6.74387 91.54431 35809 ft 499 kts 295°
2026-05-08 09:05 6.77332 91.48063 35808 ft 499 kts 295°
2026-05-08 09:05 6.80250 91.41750 35797 ft 498 kts 295°
2026-05-08 09:06 6.83183 91.35402 35798 ft 498 kts 295°
2026-05-08 09:06 6.86111 91.29063 35796 ft 497 kts 295°
2026-05-08 09:07 6.89021 91.22762 35801 ft 497 kts 295°
2026-05-08 09:07 6.91934 91.16446 35803 ft 497 kts 295°
2026-05-08 09:08 6.94859 91.10107 35803 ft 497 kts 296°
2026-05-08 09:08 6.97773 91.03788 35799 ft 496 kts 295°
2026-05-08 09:09 7.00664 90.97516 35792 ft 496 kts 295°
2026-05-08 09:09 7.03579 90.91190 35786 ft 495 kts 295°
2026-05-08 09:10 7.06492 90.84866 35783 ft 496 kts 295°
2026-05-08 09:10 7.09382 90.78587 35781 ft 497 kts 295°
2026-05-08 09:11 7.12302 90.72244 35782 ft 497 kts 295°
2026-05-08 09:11 7.15222 90.65893 35779 ft 498 kts 295°
2026-05-08 09:12 7.18141 90.59546 35786 ft 498 kts 295°
2026-05-08 09:12 7.21057 90.53200 35789 ft 498 kts 295°
2026-05-08 09:13 7.23960 90.46880 35778 ft 498 kts 296°
2026-05-08 09:13 7.26878 90.40526 35776 ft 501 kts 295°
2026-05-08 09:14 7.29796 90.34169 35784 ft 500 kts 295°
2026-05-08 09:14 7.32720 90.27798 35787 ft 499 kts 295°
2026-05-08 09:15 7.35631 90.21447 35780 ft 500 kts 295°
2026-05-08 09:15 7.38559 90.15060 35777 ft 500 kts 295°
2026-05-08 09:16 7.41469 90.08710 35775 ft 499 kts 295°
2026-05-08 09:16 7.44393 90.02324 35781 ft 501 kts 295°
2026-05-08 09:17 7.47311 89.95950 35784 ft 501 kts 295°
2026-05-08 09:17 7.50230 89.89570 35783 ft 500 kts 295°
2026-05-08 09:18 7.53137 89.83215 35775 ft 499 kts 295°
2026-05-08 09:18 7.56048 89.76846 35775 ft 500 kts 295°